sat.trackr.live / text

‹ back to catalog

STARLINK-32668

NORAD 62212 · 2024-229W

PAYLOAD ACTIVE UNKNOWN

§ Identity

Operator
Country
US
Launch date
2024-12-04
Launch site
AFETR
Launch vehicle
Mass (kg)
RCS (m²)

Purposes: comms

External: N2YO · Heavens-Above · Gunter

§ Orbital elements

Epoch: 2026-09-21T08:34:47.370144Z

Period
94.27 min
Inclination
43.0021°
Eccentricity
0.0003031
Mean motion
15.27545332 rev/d
Perigee alt
481.1 km
Apogee alt
485.2 km
Semi-major
6,861.3 km
B*
3.3205e-4
RAAN
242.4568°
Arg perigee
279.0149°
Mean anomaly
81.0359°
Rev number
10,052

§ Raw data

STARLINK-326681 62212U 24229W   26264.35749271  .00008877  00000+0  33205-3 0  99952 62212  43.0021 242.4568 0003031 279.0149  81.0359 15.27545332100526

JSON: /api/v1/satellites/62212 · /tle

For live sub-satellite position, see the globe view (requires WebGL).

§ Visibility from observer

Set your observer location to see the next 7 days of passes ≥ 10°. The values pass through the URL so the page stays shareable.

No JS? Fill the form by hand. The geolocation button needs JavaScript.